sat.trackr.live / text

‹ back to catalog

STARLINK-34558

NORAD 64721 · 2025-142AB

PAYLOAD ACTIVE UNKNOWN

§ Identity

Operator
Country
US
Launch date
2025-06-28
Launch site
AFWTR
Launch vehicle
Mass (kg)
RCS (m²)

Purposes: comms

External: N2YO · Heavens-Above · Gunter

§ Orbital elements

Epoch: 2026-05-25T05:12:38.127744Z

Period
96.11 min
Inclination
70.0002°
Eccentricity
0.0003409
Mean motion
14.98336308 rev/d
Perigee alt
569.7 km
Apogee alt
574.4 km
Semi-major
6,950.2 km
B*
2.1244e-4
RAAN
121.5050°
Arg perigee
265.9268°
Mean anomaly
94.1501°
Rev number
5,092

§ Raw data

STARLINK-345581 64721U 25142AB  26145.21710796  .00002443  00000+0  21244-3 0  99932 64721  70.0002 121.5050 0003409 265.9268  94.1501 14.98336308 50920

JSON: /api/v1/satellites/64721 · /tle

For live sub-satellite position, see the globe view (requires WebGL).

§ Visibility from observer

Set your observer location to see the next 7 days of passes ≥ 10°. The values pass through the URL so the page stays shareable.

No JS? Fill the form by hand. The geolocation button needs JavaScript.